Event Log

Records: 145 Pagina: 5 / 6 USB: 2592AF28B3D ×
CSV
ID Machine Gebeurtenis Tijd Uren Service Status USB ID
280896 100-066XAB-S5 Engine Stopped 10-01-2025 12:26:23 914 -Niet ingesteld 2592AF28B3D
280897 100-066XAB-S5 Aardfout! Shutdown 10-01-2025 12:26:13 914 -Niet ingesteld 2592AF28B3D
280895 100-066XAB-S5 Engine Start 10-01-2025 12:25:00 914 -Niet ingesteld 2592AF28B3D
138040 100-066XAB-S5 Engine Stopped 19-09-2024 06:47:17 914 -Niet ingesteld 2592AF28B3D
137873 100-066XAB-S5 Engine Start 19-09-2024 06:38:53 914 -Niet ingesteld 2592AF28B3D
137874 100-066XAB-S5 Engine Stopped 19-09-2024 06:38:44 914 -Niet ingesteld 2592AF28B3D
137808 100-066XAB-S5 Generator Under Volts Warning 19-09-2024 06:34:19 914 -Niet ingesteld 2592AF28B3D
127284 100-066XAB-S5 Engine Stopped 18-09-2024 08:23:05 914 -Niet ingesteld 2592AF28B3D
126180 100-066XAB-S5 DPTC Filter Warning 18-09-2024 07:28:44 913 -Niet ingesteld 2592AF28B3D
108601 100-066XAB-S5 Engine Stopped 13-09-2024 07:30:43 912 -Niet ingesteld 2592AF28B3D
108591 100-066XAB-S5 Engine Start 13-09-2024 06:43:49 912 -Niet ingesteld 2592AF28B3D
108415 100-066XAB-S5 Engine Stopped 12-09-2024 06:45:19 912 -Niet ingesteld 2592AF28B3D
108412 100-066XAB-S5 Engine Start 12-09-2024 06:41:12 911 -Niet ingesteld 2592AF28B3D
108301 100-066XAB-S5 Low Fuel Switch Alarm Shutdown 11-09-2024 14:03:05 911 -Niet ingesteld 2592AF28B3D
103178 100-066XAB-S5 POWER DOOR OPEN Warning 09-09-2024 07:10:29 911 -Niet ingesteld 2592AF28B3D
103091 100-066XAB-S5 Engine Stopped 09-09-2024 07:01:18 911 -Niet ingesteld 2592AF28B3D
58059 100-066XAB-S5 High Coolant Temp Warning 07-09-2024 14:30:21 871 -Niet ingesteld 2592AF28B3D
56444 100-066XAB-S5 Generator Over Current Warning 07-09-2024 12:25:08 869 -Niet ingesteld 2592AF28B3D
56440 100-066XAB-S5 Generator Over Current Warning 07-09-2024 12:23:55 869 -Niet ingesteld 2592AF28B3D
56435 100-066XAB-S5 Generator Over Current Warning 07-09-2024 12:23:06 869 -Niet ingesteld 2592AF28B3D
56436 100-066XAB-S5 Generator Over Current Warning 07-09-2024 12:22:50 869 -Niet ingesteld 2592AF28B3D
41258 100-066XAB-S5 Engine Start 06-09-2024 08:28:24 841 -Niet ingesteld 2592AF28B3D
41100 100-066XAB-S5 Engine Stopped 06-09-2024 08:18:09 841 -Niet ingesteld 2592AF28B3D
32061 100-066XAB-S5 Engine Start 05-09-2024 15:13:03 824 -Niet ingesteld 2592AF28B3D
27209 100-066XAB-S5 Engine Stopped 04-09-2024 08:57:25 824 -Niet ingesteld 2592AF28B3D
101–125 van 145